Location: Unspecified
(0.0000°N, 0.0000°E)
Time: 07:29:24
(UTC+00:00)

Vanguard 2 - Pass Details

Date: 09 December 2017
Orbit: 553 x 2939 km, 32.9° (Epoch: 23 June)

Event Time Altitude Azimuth Distance (km) Brightness Sun altitude
Exits shadow 04:36:06 - 250° (WSW) 4,996 11.3 -17.5°
Reaches altitude 10° 04:38:42 10° 241° (WSW) 4,669 11.2 -16.9°
Maximum altitude 04:48:29 22° 196° (SSW) 4,401 11.4 -14.7°
Drops below altitude 10° 05:00:27 10° 152° (SSE) 5,739 12.8 -11.9°
Sets 05:07:00 0° 138° (SE) 6,788 13.7 -10.4°
